CZ-6A DEB, 54956

Orbit data source: Space-Track

CZ-6A DEB, 54956 is space debris in SSO originally from a launch on Fri, 11 Nov 2022 UTC launched from the Taiyaun Space Center, China (TSC). Debris objects in space refer to the collection of defunct objects orbiting the Earth. Examples of debris include non-operational satellites, rocket bodies, and fragments generated from explosions, collisions, or faulty payload assembly.

Loading next visibility...
Identifier
54956, 2022-151SV
Orbit
SSO
Country
Flag of CNCN / PRC
Related business
Manufacturer
SAST
Mission
Spacecraft
Bus & Motor
Unknown
Mass
Unknown
Launch date (UTC)
2022-11-11 (4 years ago)
Launch vehicle
Unknown
Launch site
Taiyaun Space Center, China (TSC)
Object type
Payload
Rocket body
Debris
Shape & HBR
Unknown shape, 0.1 m
Radar Cross Section
Small (<0.1 m²)

Expand to show TLE details & history
Last TLE update: 2 days ago

TLE from 2 days ago
0 CZ-6A DEB
1 54956U 22151SV  26171.38471604  .00000833  00000-0  54587-3 0  9996
2 54956  98.9075 150.0586 0131798 355.4399   4.5556 14.00659455183692
Epoch: 2026-06-20T09:13Z
TLE epoch observation values (Epoch: 2026-06-20T09:13:59.465Z)
Latitude
-0.00003°
Longitude
102.96073°
Altitude
798.874 km
Speed
7.503 km/s
True Right ascension
10h 00m 14s
True Declination
0° 00' 00"
Sunlit
Object was in daylight at epoch
Visualization orbit readout
Latitude
Unknown
Longitude
Unknown
Altitude
Unknown
Speed
Unknown
Apparent Right ascension
Unknown
Apparent Declination
Unknown
Sunlit
N/A
Visualization observer readout
Local Sidereal Time
21:27:53
Azimuth
Unknown
Elevation
Unknown
Doppler factor
Unknown
Orbital elements
Apogee altitude
984.481 km
Perigee altitude
792.93 km
Semi-major axis
7,266.843 km
Eccentricity
0.01318
Inclination
98.9075°
RAAN
150.0586°
Arg. of periapsis
355.4399°
True anomaly
4.67756°
Mean anomaly
4.5556°
Eccentric anomaly
4.61638°
Mean motion
3.50368 °/min
Orbital period
102.75 mins
BSTAR
0.00054587
Loading maneuver chart data...
Computing Atmospheric mass density...
Loading historical data...
Loading historical data...
Loading historical data...
Loading historical data...
Loading historical data...
Loading historical data...
Loading historical data...

Documentation

Showing up to 5 results
|